Content
SEND FEEDBACK

Daily
Averages
Monthly
Summary
United States of America

BAYSIDE, NEW YORK


Home > North America > United States > New York
Elevation: 11 feet     Latitude: 40 46N     Longitude: 073 54W

WEATHER
 
SELECT A DAY
Number of Records: 195,780;   Date Range: 1/1/95 - 12/24/14
 
SHARE

PRINT THIS DATA

[ ← Previous Day ]
WEATHER ALMANAC - MARCH 5, 2013
[ Next Day → ]
[ °C ]   °F
Weather ElementAverageHighLow
Temperature40.5 °F46.9 °F (2:51 pm)33.1 °F (2:51 am)
Dewpoint22.8 °F26.1 °F (11:51 pm)21 °F (2:51 am)
Humidity50 %61 % (2:51 am)37 % (3:51 pm)
Barometer29.98 in30.01 in (8:51 am)29.92 in (2:51 am)
Wind Speed9.2 mph13.8 mph (5:51 am)
Wind Gust19.6 mph (10:51 am)
Weather ElementAverage
Visibility10 mi
Wind DirectionSSW (198.6 °)

Weather ElementTotal
Precipitation---
Heating Degree Days25 (Base 65)
Averaged from 22 records on March 5, 2013
WEATHER CONDITIONS BREAKOUT
WIND DIRECTION BREAKOUT
WEATHER BY HOUR - MARCH 5, 2013
[ °C ]   °F
Local TimeTemperatureDewpointHumidityBarometerVisibilityWind DirectionWind SpeedGust SpeedPrecipitationEventsConditions
2:51 AM33.1 °F21.0 °F61 %29.92 in10.0 miNW (320°)10.4 mphClear
3:51 AM33.1 °F21.0 °F61 %29.93 in10.0 miNW (310°)12.7 mphClear
4:51 AM33.1 °F21.0 °F61 %29.95 in10.0 miNNW (330°)12.7 mphClear
5:51 AM33.1 °F21.0 °F61 %29.97 in10.0 miNW (320°)13.8 mphPartly Cloudy
6:51 AM33.1 °F21.0 °F61 %29.99 in10.0 miNW (320°)9.2 mphPartly Cloudy
7:51 AM33.8 °F21.2 °F60 %30.00 in10.0 miNW (320°)13.8 mphScattered Clouds
8:51 AM35.1 °F21.0 °F57 %30.01 in10.0 miNNW (340°)11.5 mphPartly Cloudy
9:51 AM37.9 °F23.0 °F55 %30.01 in10.0 miNW (310°)10.4 mphClear
10:51 AM41.0 °F23.0 °F49 %29.99 in10.0 miNNW (340°)12.7 mph19.6 mphClear
11:51 AM44.1 °F23.0 °F43 %29.99 in10.0 miNorth (360°)10.4 mph19.6 mphPartly Cloudy
12:51 PM44.1 °F24.1 °F45 %29.98 in10.0 miNorth (350°)10.4 mphPartly Cloudy
1:51 PM45.0 °F23.0 °F42 %29.98 in10.0 miNNE (20°)5.8 mphPartly Cloudy
2:51 PM46.9 °F23.0 °F39 %29.98 in10.0 miNorth (10°)8.1 mphScattered Clouds
3:51 PM46.9 °F21.9 °F37 %29.97 in10.0 miENE (60°)5.8 mphScattered Clouds
4:51 PM46.9 °F23.0 °F39 %29.97 in10.0 miENE (70°)6.9 mphScattered Clouds
5:51 PM46.0 °F23.0 °F40 %29.99 in10.0 miENE (70°)8.1 mphScattered Clouds
6:51 PM45.0 °F23.0 °F42 %30.01 in10.0 miNE (50°)3.5 mphScattered Clouds
7:51 PM43.0 °F25.0 °F49 %30.00 in10.0 miEast (80°)5.8 mphScattered Clouds
8:51 PM44.1 °F24.1 °F45 %30.00 in10.0 miVariable4.6 mphScattered Clouds
9:51 PM42.1 °F24.1 °F49 %30.01 in10.0 miSE (130°)8.1 mphMostly Cloudy
10:51 PM42.1 °F24.1 °F49 %30.01 in10.0 miSE (140°)8.1 mphOvercast
11:51 PM41.0 °F26.1 °F55 %29.99 in10.0 miESE (120°)9.2 mphOvercast
Hourly data recorded from KLGA, located miles away from Bayside, New York







STORIES FROM OUR PARTNERS